Back to catalog

NAVSTAR 37

USA 117

AliveNavigationMEO
NORAD 23833·PAYLOAD·🇺🇸 United States

Launched Mar 28, 1996 from Cape Canaveral Space Force Station

Loading…

Next Passes (next 24 hours)

TLE

FreshSource: Space-Track

Epoch: Sep 12, 2026, 18:58 UTC

1 23833U 96019A   26255.79081875 -.00000016  00000-0  00000-0 0  9997
2 23833  52.7496 261.7170 0008467  19.1695 337.2876  1.94619840 84464

Track NAVSTAR 37 in real time with AllMySat

Download on the App Store